Location: Alsip
(41.6689°N, 87.7387°W)
Time: 14:08:45
(UTC+00:00)

ATLAS 5 CENTAUR R/B - Pass Details

Date: 14 July 2020
Orbit: 534 x 1124 km, 63.4° (Epoch: 30 July)

Event Time Altitude Azimuth Distance (km) Brightness Sun altitude
Rises 08:22:17 0° 327° (NNW) 3,300 5.6 -18.4°
Reaches altitude 10° 08:24:36 10° 331° (NNW) 2,454 4.9 -18.1°
Maximum altitude 08:30:18 60° 52° (NE) 1,064 3.0 -17.5°
Drops below altitude 10° 08:36:55 10° 132° (SE) 2,830 4.9 -16.7°
Sets 08:39:45 0° 135° (SE) 3,843 5.6 -16.4°
